Location: Burtsch�tz
(51.0528°N, 12.1764°E)
Time: 06:50:38
(UTC+00:00)

CSL-04 Debris - Pass Details

Date: 29 October 2020
Orbit: 827 x 848 km, 98.9° (Epoch: 01 December)

Event Time Altitude Azimuth Distance (km) Brightness Sun altitude
Rises 17:36:56 0° 153° (SSE) 3,377 7.1 -17.2°
Reaches altitude 10° 17:39:17 10° 151° (SSE) 2,450 6.3 -17.6°
Maximum altitude 17:44:40 67° 70° (ENE) 912 4.1 -18.5°
Drops below altitude 10° 17:50:07 10° 349° (NNW) 2,480 6.8 -19.3°
Sets 17:52:31 0° 347° (NNW) 3,421 7.6 -19.7°
